Regional Weather Roundup
Issued by NWS

Home | Current Version | Previous Version | Text Only | Print | Product List | Glossary Off
Versions: 1 2 3 4 5 6 7 8 9 10 11 12 13 14 15 16 17 18 19 20 21 22 23 24 25 26 27 28 29 30 31 32 33 34 35 36 37 38 39 40 41 42 43 44 45 46 47 48 49 50

000
ASUS43 KTOP 300159
RWRKS

WEATHER ROUNDUP FOR KANSAS
NATIONAL WEATHER SERVICE GOODLAND KS
900 PM CDT MON SEP 29 2014

NOTE:  "FAIR" INDICATES FEW OR NO CLOUDS BELOW 12,000 FEET WITH NO
SIGNIFICANT WEATHER AND/OR OBSTRUCTIONS TO VISIBILITY.

KSZ001>006-013>018-027>032-041>047-300300-
NORTHWEST KANSAS

CITY           SKY/WX    TMP DP  RH WIND       PRES   REMARKS
GOODLAND       CLOUDY    72  52  49 SW30G43   29.86R
HAYS           CLEAR     72  54  53 SE15      29.88R
HILL CITY      PTCLDY    73  54  51 SE13      29.86R
RUSSELL        CLEAR     70  55  59 SE13      29.87S
$$

KSZ061>065-074>080-084>089-300300-
SOUTHWEST KANSAS

CITY           SKY/WX    TMP DP  RH WIND       PRES   REMARKS
DODGE CITY     MOCLDY    73  52  47 SE15G24   29.89R
ELKHART          N/A     72  54  53 S13         N/A
GARDEN CITY    CLOUDY    73  52  47 S17G25    29.85F
GREAT BEND     CLEAR     72  54  53 SE12      29.90R
LIBERAL        CLOUDY    73  52  46 SE15      29.88F
$$

KSZ066>073-081>083-090>101-300300-
SOUTHEAST KANSAS

CITY           SKY/WX    TMP DP  RH WIND       PRES   REMARKS
CHANUTE        CLEAR     67  61  81 SE6       29.95S
COFFEYVILLE    CLEAR     69  61  75 E6        29.94S
HUTCHINSON     CLEAR     74  56  53 SE10      29.91R
MEDICINE LODGE   N/A     75  55  49 SE8       29.90R
NEWTON         CLEAR     70  54  56 SE9       29.95S
PARSONS        CLEAR     66  62  87 SE3       29.96S
WICHITA INTL   PTCLDY    75  56  51 SE10      29.92R
WICHITA JABRA  CLEAR     72  56  57 SE8       29.93R
WINFIELD       CLEAR     73  60  63 SE8       29.94R
$$

KSZ007>012-019>026-033>040-048>060-102>105-300300-
NORTHEAST KANSAS

CITY           SKY/WX    TMP DP  RH WIND       PRES   REMARKS
CONCORDIA      CLEAR     64  57  78 SE7       29.90S
EMPORIA        CLEAR     69  60  73 SE7       29.94S
LAWRENCE       CLEAR     65  59  81 CALM      29.95R
MANHATTAN      PTCLDY    69  59  70 CALM      29.92S
OLATHE IND     CLEAR     72  60  66 SE5       29.96S
OLATHE EXE     CLEAR     70  61  73 SE3       29.96R
SALINA         CLEAR     73  59  61 SE9       29.90S
TOPEKA BILLARD CLEAR     70  61  73 E5        29.94S
TOPEKA FORBES  CLEAR     67  60  78 E3        29.94S
$$



USA.gov is the U.S. government's official web portal to all federal, state and local government web resources and services.